TimeEST,TemperatureF,Dew PointF,Humidity,Sea Level PressureIn,VisibilityMPH,Wind Direction,Wind SpeedMPH,Gust SpeedMPH,PrecipitationIn,Events,Conditions,WindDirDegrees,DateUTC
12:51 AM,26.1,18.0,71,30.00,10.0,West,12.7,-,N/A,,Scattered Clouds,270,2014-02-10 05:51:00
1:51 AM,26.1,17.1,69,30.01,10.0,WNW,13.8,20.7,N/A,,Partly Cloudy,300,2014-02-10 06:51:00
2:51 AM,25.0,16.0,69,30.01,10.0,NW,17.3,23.0,N/A,,Partly Cloudy,310,2014-02-10 07:51:00
3:51 AM,25.0,14.0,63,30.03,10.0,NW,17.3,23.0,N/A,,Mostly Cloudy,310,2014-02-10 08:51:00
4:51 AM,24.1,12.0,60,30.04,10.0,WNW,21.9,28.8,N/A,,Mostly Cloudy,300,2014-02-10 09:51:00
5:51 AM,23.0,10.9,60,30.08,10.0,WNW,20.7,27.6,N/A,,Partly Cloudy,300,2014-02-10 10:51:00
6:51 AM,21.9,10.0,60,30.11,10.0,NW,13.8,25.3,N/A,,Partly Cloudy,310,2014-02-10 11:51:00
7:51 AM,21.9,10.0,60,30.13,10.0,WNW,15.0,21.9,N/A,,Partly Cloudy,300,2014-02-10 12:51:00
8:51 AM,23.0,10.0,58,30.16,10.0,NW,18.4,24.2,N/A,,Partly Cloudy,310,2014-02-10 13:51:00
9:51 AM,24.1,10.0,55,30.16,10.0,NW,15.0,23.0,N/A,,Partly Cloudy,310,2014-02-10 14:51:00
10:51 AM,25.0,10.0,53,30.15,10.0,NW,17.3,24.2,N/A,,Partly Cloudy,310,2014-02-10 15:51:00
11:51 AM,27.0,8.1,45,30.14,10.0,WNW,18.4,23.0,N/A,,Scattered Clouds,300,2014-02-10 16:51:00
12:51 PM,28.0,7.0,41,30.13,10.0,WNW,17.3,-,N/A,,Scattered Clouds,300,2014-02-10 17:51:00
1:51 PM,28.9,8.1,41,30.12,10.0,NW,13.8,-,N/A,,Scattered Clouds,320,2014-02-10 18:51:00
2:51 PM,28.9,8.1,41,30.13,10.0,NW,16.1,-,N/A,,Scattered Clouds,310,2014-02-10 19:51:00
3:51 PM,28.9,8.1,41,30.14,10.0,NW,17.3,-,N/A,,Scattered Clouds,310,2014-02-10 20:51:00
4:51 PM,28.0,8.1,43,30.16,10.0,WNW,15.0,-,N/A,,Scattered Clouds,300,2014-02-10 21:51:00
5:51 PM,27.0,6.1,41,30.19,10.0,NNW,11.5,-,N/A,,Scattered Clouds,330,2014-02-10 22:51:00
6:51 PM,26.1,7.0,44,30.22,10.0,NW,12.7,-,N/A,,Scattered Clouds,320,2014-02-10 23:51:00
7:51 PM,26.1,6.1,43,30.23,10.0,NW,11.5,-,N/A,,Scattered Clouds,310,2014-02-11 00:51:00
8:51 PM,25.0,6.1,45,30.24,10.0,NW,13.8,-,N/A,,Scattered Clouds,320,2014-02-11 01:51:00
9:51 PM,25.0,7.0,46,30.27,10.0,NW,12.7,18.4,N/A,,Partly Cloudy,320,2014-02-11 02:51:00
10:51 PM,24.1,7.0,48,30.27,10.0,NNW,11.5,-,N/A,,Partly Cloudy,340,2014-02-11 03:51:00
11:51 PM,23.0,7.0,50,30.28,10.0,NNW,11.5,-,N/A,,Partly Cloudy,330,2014-02-11 04:51:00